Regional Weather Roundup
Issued by NWS

Home | Current Version | Previous Version | Text Only | Print | Product List | Glossary On
Versions: 1 2 3 4 5 6 7 8 9 10 11 12 13 14 15 16 17 18 19 20 21 22 23 24 25 26 27 28 29 30 31 32 33 34 35 36 37 38 39 40 41 42 43 44 45 46 47 48 49 50
000
ASUS43 KFSD 050610
RWRSD

WEATHER ROUNDUP FOR SOUTH DAKOTA
NATIONAL WEATHER SERVICE SIOUX FALLS SD
1200 AM CST THU MAR 05 2015

NOTE: "FAIR" INDICATES FEW OR NO CLOUDS BELOW 12,000 FEET WITH NO
SIGNIFICANT WEATHER AND/OR OBSTRUCTIONS TO VISIBILITY.


SDZ001>005-009-010-012>017-050700-
NORTHWEST AND NORTH CENTRAL SOUTH DAKOTA

CITY           SKY/WX    TMP DP  RH WIND       PRES   REMARKS
BUFFALO          N/A      3  -7  63 S7        30.11S WCI  -9
FAITH            N/A     -1 -10  65 S13       30.26F WCI -19
MOBRIDGE       CLEAR     -2  -9  72 SE6       30.32S WCI -14
$$

SDZ012>016-024>037-041>051-057-063-072>074-050700-
SOUTHWEST AND SOUTH CENTRAL SOUTH DAKOTA

CITY           SKY/WX    TMP DP  RH WIND       PRES   REMARKS
RAPID CTY ARPT CLEAR      4  -1  80 S7        30.23F WCI  -8
PIERRE         PTCLDY    -8 -13  78 E5        30.38F WCI -19
CUSTER         CLEAR      2  -7  66 CALM      30.05F
ELLSWORTH AFB  CLEAR      9   1  71 S8        30.20F WCI  -4
PHILIP         PTCLDY    -3  -9  75 CALM      30.33F
PINE RIDGE     CLEAR     -9 -14  78 CALM      30.27S
SPEARFISH      FAIR       5  -8  56 CALM      30.14F
WINNER         FAIR       0 -11  59 S5        30.38S WCI -10
$$

SDZ004>011-016>023-039-040-050700-
NORTHEAST SOUTH DAKOTA

CITY           SKY/WX    TMP DP  RH WIND       PRES   REMARKS
ABERDEEN       PTCLDY   -12 -18  74 SW3       30.44S
WATERTOWN      PTCLDY   -12 -18  74 S5        30.39R WCI -24
SISSETON         N/A     -6 -13  71 W7        30.43  WCI -20
$$

SDZ017-020-022-023-036>040-048>070-050700-
SOUTHEAST SOUTH DAKOTA

CITY           SKY/WX    TMP DP  RH WIND       PRES   REMARKS
SIOUX FALLS    CLEAR     -6 -11  79 CALM      30.44F
HURON          CLEAR     -9 -15  75 SW3       30.47R
CHAMBERLAIN    PTCLDY    -3  -8  78 E5        30.42S WCI -14
MITCHELL       CLEAR     -2  -8  76 CALM      30.49R
YANKTON        CLEAR      1  -6  71 NW5       30.48S WCI  -8
$$

ABBREVIATIONS USED IN REMARKS
   TC - TEMPERATURE IN CELSIUS
  WCI - WIND CHILL INDEX
   HX - HEAT INDEX
  VSB - VISIBILITY




USA.gov is the U.S. government's official web portal to all federal, state and local government web resources and services.